Location: Newark
(36.1358°N, 115.1208°W)
Time: 13:04:02
(UTC+00:00)

deb Explorer IX - All Passes

Search period start: 21 February 2020 00:00
Search period end: 02 March 2020 00:00
Orbit: 549 x 1099 km, 38.8° (Epoch: 20 February)

Date Brightness Start Highest point End Pass type
(mag) Time Alt. Az. Time Alt. Az. Time Alt. Az.
21 Feb - 01:21:23 10° WSW 01:23:50 14° SW 01:26:26 10° S daylight
21 Feb - 16:07:19 10° SSE 16:08:14 11° SE 16:09:09 10° SE daylight
21 Feb - 17:50:20 10° SW 17:54:35 45° SSE 17:58:33 10° E daylight
21 Feb - 19:37:08 10° W 19:41:18 68° N 19:45:25 10° ENE daylight
21 Feb - 21:24:12 10° WNW 21:28:17 66° N 21:32:35 10° E daylight
21 Feb - 23:10:57 10° W 23:15:03 50° SSW 23:19:36 10° SE daylight
22 Feb - 00:59:24 10° WSW 01:01:31 13° SW 01:03:44 10° S daylight
22 Feb - 15:44:24 10° SSE 15:45:56 11° SE 15:47:25 10° SE daylight
22 Feb - 17:27:57 10° SW 17:32:19 47° SSE 17:36:21 10° E daylight
22 Feb - 19:14:50 10° W 19:19:04 67° N 19:23:09 10° ENE daylight
22 Feb - 21:01:57 10° WNW 21:06:03 66° N 21:10:16 10° E daylight
22 Feb - 22:48:45 10° W 22:52:47 49° SSW 22:57:12 10° SE daylight
23 Feb - 00:37:28 10° WSW 00:39:12 12° SW 00:41:00 10° SSW daylight
23 Feb - 15:21:36 10° S 15:23:37 12° SE 15:25:33 10° ESE daylight
23 Feb - 17:05:32 10° SW 17:10:04 49° SSE 17:14:09 10° E daylight
23 Feb - 18:52:30 10° W 18:56:50 67° N 19:00:55 10° ENE daylight
23 Feb - 20:39:42 10° WNW 20:43:48 67° N 20:47:59 10° E daylight
23 Feb - 22:26:33 10° W 22:30:32 47° SSW 22:34:48 10° SE daylight
24 Feb - 00:15:36 10° SW 00:16:53 11° SW 00:18:12 10° SSW daylight
24 Feb - 14:58:52 10° S 15:01:17 13° SE 15:03:35 10° ESE daylight
24 Feb - 16:43:06 10° SW 16:47:47 50° SSE 16:51:58 10° E daylight
24 Feb - 18:30:10 10° W 18:34:34 67° N 18:38:41 10° ENE daylight
24 Feb - 20:17:25 10° WNW 20:21:35 67° N 20:25:42 10° E daylight
24 Feb - 22:04:20 10° W 22:08:17 45° SSW 22:12:25 10° SE daylight
24 Feb - 23:53:58 10° SW 23:54:35 10° SW 23:55:12 10° SSW daylight
25 Feb - 14:36:09 10° S 14:38:58 14° SE 14:41:36 10° ESE daylight
25 Feb - 16:20:38 10° SW 16:25:30 52° SSE 16:29:47 10° E daylight
25 Feb - 18:07:48 10° W 18:12:19 67° N 18:16:29 10° ENE daylight
25 Feb - 19:55:08 10° WNW 19:59:20 68° N 20:03:26 10° E daylight
25 Feb - 21:42:06 10° W 21:46:01 44° SSW 21:50:04 10° SE daylight
26 Feb - 14:13:28 10° S 14:16:38 16° SE 14:19:33 10° ESE daylight
26 Feb - 15:58:09 10° SW 16:03:12 54° SSE 16:07:36 10° E daylight
26 Feb - 17:45:25 10° W 17:50:05 67° N 17:54:16 10° ENE daylight
26 Feb - 19:32:48 10° WNW 19:37:06 69° N 19:41:11 10° E daylight
26 Feb - 21:19:52 10° W 21:23:46 43° SSW 21:27:45 10° SE daylight
27 Feb - 13:50:46 10° S 13:54:16 17° SE 13:57:29 10° ESE visible
27 Feb - 15:35:40 10° SW 15:40:54 56° SSE 15:45:26 10° E daylight
27 Feb - 17:23:00 10° W 17:27:49 67° N 17:32:04 10° ENE daylight
27 Feb - 19:10:28 10° WNW 19:14:51 70° N 19:18:58 10° E daylight
27 Feb - 20:57:35 10° W 21:01:31 42° SSW 21:05:26 10° SE daylight
28 Feb - 13:28:05 10° S 13:31:54 18° SE 13:35:24 10° ESE visible
28 Feb - 15:13:08 10° SW 15:18:35 58° SSE 15:23:15 10° ENE daylight
28 Feb - 17:00:34 10° W 17:05:32 67° N 17:09:53 10° ENE daylight
28 Feb - 18:48:07 10° WNW 18:52:36 70° N 18:56:44 10° E daylight
28 Feb - 20:35:19 10° W 20:39:16 41° SSW 20:43:09 10° SE daylight
29 Feb - 13:05:24 10° S 13:09:32 19° SE 13:13:17 10° ESE visible
29 Feb - 14:50:37 10° SW 14:56:15 60° SSE 15:01:03 10° ENE daylight
29 Feb - 16:38:06 10° W 16:43:14 67° N 16:47:41 10° ENE daylight
29 Feb - 18:25:44 10° WNW 18:30:21 72° N 18:34:32 10° E daylight
29 Feb - 20:13:00 10° W 20:17:01 40° SSW 20:20:52 10° SE daylight
01 Mar - 12:42:43 10° S 12:47:08 20° SE 12:51:08 10° E visible
01 Mar - 14:28:05 10° SW 14:33:54 62° SSE 14:38:51 10° ENE daylight
01 Mar - 16:15:38 10° W 16:20:57 67° N 16:25:30 10° ENE daylight
01 Mar - 18:03:19 10° WNW 18:08:06 73° N 18:12:20 10° E daylight
01 Mar - 19:50:40 10° W 19:54:45 40° SSW 19:58:37 10° SE daylight
